Find Starlink 11176

NORAD ID: 60060 Int'l Des: 2024-113 Owner: SPXS Country: US Constellation: starlink operational
LEOCIRCULAR

リアルタイム位置

3D地球を読み込み中...

Starlink 11176について

説明を読み込み中...

次回通過

Passes for default location (London). Set your location on the main map for personalized predictions.

高度履歴

Loading altitude history...

軌道要素

1 60060U 24113B 26123.72198439 .00004016 00000-0 37996-4 0 9999
2 60060 53.1586 279.9965 0000840 76.4823 283.6289 15.69704221108207
Epoch: May 3, 2026 • Age: 7 hours

現在のステータス

高度 373.3 km
速度 7.69 km/s
衛星直下点 -40.14°S, 6.5°E
打ち上げ日 Jun 19, 2024
運用期間 1.8 years
タイプ internet

技術仕様

分類 Payload
質量 960.00 kg
乾燥質量 910.00 kg
総質量 960.00 kg
長さ 0.30 m
直径 4.10 m
スパン 29.00 m
形状 Box + pan
製造者 SPXS
バスタイプ Starlink V2MD
フェーズステータス In Orbit
所有者/国 SPXS/US

Most Searched